Time,TemperatureF,DewpointF,PressureIn,WindDirection,WindDirectionDegrees,WindSpeedMPH,WindSpeedGustMPH,Humidity,HourlyPrecipIn,Conditions,Clouds,dailyrainin,SoftwareType,DateUTC
2013-02-24 00:01:00,51.3,42.4,29.67,SW,225,4.4,6.2,72,0.00,,,0.00,,2013-02-23 23:01:00,
2013-02-24 00:06:00,51.3,42.8,29.70,South,180,4.0,4.0,73,0.00,,,0.00,,2013-02-23 23:06:00,
2013-02-24 00:11:00,51.3,42.8,29.70,South,180,4.4,4.4,73,0.00,,,0.00,,2013-02-23 23:11:00,
2013-02-24 00:16:00,51.1,42.6,29.70,SW,225,4.0,5.3,73,0.00,,,0.00,,2013-02-23 23:16:00,
2013-02-24 00:21:00,51.1,42.6,29.70,SW,225,4.9,10.2,73,0.00,,,0.00,,2013-02-23 23:21:00,
2013-02-24 00:26:00,51.1,42.6,29.70,SSE,157,6.7,8.5,73,0.00,,,0.00,,2013-02-23 23:26:00,
2013-02-24 00:31:00,51.1,42.3,29.70,South,180,4.9,11.1,72,0.00,,,0.00,,2013-02-23 23:31:00,
2013-02-24 00:36:00,51.1,41.9,29.67,SSW,202,5.8,10.2,71,0.00,,,0.00,,2013-02-23 23:36:00,
2013-02-24 00:41:00,51.1,41.9,29.67,SW,225,8.9,9.8,71,0.00,,,0.00,,2013-02-23 23:41:00,
2013-02-24 00:46:00,51.1,41.5,29.70,SW,225,11.6,11.6,70,0.00,,,0.00,,2013-02-23 23:46:00,
2013-02-24 00:51:00,51.1,41.5,29.70,SW,225,12.9,14.3,70,0.00,,,0.00,,2013-02-23 23:51:00,
2013-02-24 00:56:00,51.1,41.5,29.70,SW,225,8.0,12.5,70,0.00,,,0.00,,2013-02-23 23:56:00,
2013-02-24 01:01:00,51.1,41.5,29.70,SW,225,5.3,12.5,70,0.00,,,0.00,,2013-02-24 00:01:00,
2013-02-24 01:06:00,51.1,41.5,29.73,SW,225,5.8,8.5,70,0.00,,,0.00,,2013-02-24 00:06:00,
2013-02-24 01:11:00,51.1,41.5,29.73,SW,225,5.8,5.8,70,0.00,,,0.00,,2013-02-24 00:11:00,
2013-02-24 01:16:00,50.9,41.7,29.73,SW,225,6.7,0.0,71,0.00,,,0.00,,2013-02-24 00:16:00,
2013-02-24 01:21:00,50.9,41.7,29.73,SW,225,6.2,6.2,71,0.00,,,0.00,,2013-02-24 00:21:00,
2013-02-24 01:26:00,50.9,41.7,29.73,SW,225,3.1,3.1,71,0.00,,,0.00,,2013-02-24 00:26:00,
2013-02-24 01:31:00,50.9,41.4,29.73,SW,225,4.4,0.0,70,0.00,,,0.00,,2013-02-24 00:31:00,
2013-02-24 01:36:00,50.7,40.8,29.73,SSW,202,4.0,10.7,69,0.00,,,0.00,,2013-02-24 00:36:00,
2013-02-24 01:41:00,50.7,40.5,29.73,SW,225,10.7,12.0,68,0.00,,,0.00,,2013-02-24 00:41:00,
2013-02-24 01:46:00,50.5,39.9,29.73,SW,225,8.9,12.0,67,0.00,,,0.00,,2013-02-24 00:46:00,
2013-02-24 01:51:00,50.4,39.4,29.73,SW,225,12.5,12.5,66,0.00,,,0.00,,2013-02-24 00:51:00,
2013-02-24 01:56:00,50.2,39.2,29.73,SW,225,6.7,7.6,66,0.00,,,0.00,,2013-02-24 00:56:00,
2013-02-24 02:01:00,50.2,39.2,29.73,SW,225,6.2,7.6,66,0.00,,,0.00,,2013-02-24 01:01:00,
2013-02-24 02:06:00,50.2,39.6,29.73,SW,225,5.8,9.3,67,0.00,,,0.00,,2013-02-24 01:06:00,
2013-02-24 02:11:00,50.0,39.4,29.73,SW,225,8.9,8.9,67,0.00,,,0.00,,2013-02-24 01:11:00,
2013-02-24 02:16:00,50.0,39.7,29.73,SW,225,10.2,16.5,68,0.00,,,0.00,,2013-02-24 01:16:00,
2013-02-24 02:21:00,49.8,38.8,29.73,SW,225,13.4,15.6,66,0.00,,,0.00,,2013-02-24 01:21:00,
2013-02-24 02:26:00,49.6,38.7,29.73,SW,225,9.8,13.4,66,0.00,,,0.00,,2013-02-24 01:26:00,
2013-02-24 02:31:00,49.5,38.1,29.73,SW,225,8.0,8.9,65,0.00,,,0.00,,2013-02-24 01:31:00,
2013-02-24 02:36:00,49.3,37.9,29.76,SW,225,8.0,9.8,65,0.00,,,0.00,,2013-02-24 01:36:00,
2013-02-24 02:41:00,49.1,37.8,29.76,SW,225,7.1,7.6,65,0.00,,,0.00,,2013-02-24 01:41:00,
2013-02-24 02:46:00,49.1,38.1,29.73,SW,225,7.6,9.8,66,0.00,,,0.00,,2013-02-24 01:46:00,
2013-02-24 02:51:00,48.9,37.9,29.73,SW,225,7.1,8.9,66,0.00,,,0.00,,2013-02-24 01:51:00,
2013-02-24 02:56:00,48.9,37.9,29.73,SW,225,6.7,7.6,66,0.00,,,0.00,,2013-02-24 01:56:00,
2013-02-24 03:01:00,48.9,37.9,29.73,SW,225,5.3,7.6,66,0.00,,,0.00,,2013-02-24 02:01:00,
2013-02-24 03:06:00,48.9,38.3,29.73,SW,225,3.5,3.5,67,0.00,,,0.00,,2013-02-24 02:06:00,
2013-02-24 03:11:00,48.7,38.1,29.73,SW,225,2.6,4.0,67,0.00,,,0.00,,2013-02-24 02:11:00,
2013-02-24 03:16:00,48.7,38.1,29.76,South,180,1.3,2.6,67,0.00,,,0.00,,2013-02-24 02:16:00,
2013-02-24 03:21:00,48.9,38.7,29.76,South,180,2.6,2.6,68,0.00,,,0.00,,2013-02-24 02:21:00,
2013-02-24 03:26:00,48.9,38.7,29.73,SSW,202,0.8,4.4,68,0.00,,,0.00,,2013-02-24 02:26:00,
2013-02-24 03:31:00,48.9,38.7,29.73,South,180,1.7,4.9,68,0.00,,,0.00,,2013-02-24 02:31:00,
2013-02-24 03:36:00,48.9,38.7,29.76,South,180,2.2,4.9,68,0.00,,,0.00,,2013-02-24 02:36:00,
2013-02-24 03:41:00,48.9,38.7,29.76,South,180,3.1,4.0,68,0.00,,,0.00,,2013-02-24 02:41:00,
2013-02-24 03:46:00,48.9,38.7,29.73,SSW,202,3.5,5.8,68,0.00,,,0.00,,2013-02-24 02:46:00,
2013-02-24 03:51:00,48.9,38.7,29.73,South,180,2.2,3.1,68,0.00,,,0.00,,2013-02-24 02:51:00,
2013-02-24 03:56:00,48.9,38.3,29.76,SW,225,2.2,12.5,67,0.00,,,0.00,,2013-02-24 02:56:00,
2013-02-24 04:01:00,48.7,38.1,29.76,South,180,6.2,14.7,67,0.00,,,0.00,,2013-02-24 03:01:00,
2013-02-24 04:06:00,48.7,37.8,29.73,SW,225,5.8,0.0,66,0.00,,,0.00,,2013-02-24 03:06:00,
2013-02-24 04:11:00,48.4,38.1,29.73,SW,225,9.3,12.9,68,0.00,,,0.00,,2013-02-24 03:11:00,
2013-02-24 04:16:00,47.8,38.1,29.73,South,180,6.2,8.5,69,0.00,,,0.00,,2013-02-24 03:16:00,
2013-02-24 04:21:00,47.5,38.5,29.73,SW,225,3.5,7.6,71,0.02,,,0.02,,2013-02-24 03:21:00,
2013-02-24 04:26:00,47.1,38.5,29.73,SE,135,1.7,5.8,72,0.02,,,0.02,,2013-02-24 03:26:00,
2013-02-24 04:31:00,46.8,38.8,29.73,South,180,3.5,5.3,74,0.02,,,0.02,,2013-02-24 03:31:00,
2013-02-24 04:36:00,46.6,39.0,29.73,SE,135,4.9,11.1,75,0.02,,,0.02,,2013-02-24 03:36:00,
2013-02-24 04:41:00,46.4,39.2,29.73,SE,135,4.0,4.9,76,0.02,,,0.02,,2013-02-24 03:41:00,
2013-02-24 04:46:00,46.0,39.2,29.73,South,180,4.9,7.6,77,0.04,,,0.04,,2013-02-24 03:46:00,
2013-02-24 04:51:00,45.7,39.4,29.73,SE,135,4.9,12.9,79,0.07,,,0.07,,2013-02-24 03:51:00,
2013-02-24 04:56:00,45.5,39.2,29.76,SE,135,1.7,4.0,79,0.07,,,0.07,,2013-02-24 03:56:00,
2013-02-24 05:06:00,45.3,39.4,29.76,SE,135,3.5,4.9,80,0.00,,,0.07,,2013-02-24 04:06:00,
2013-02-24 05:11:00,45.1,39.2,29.76,SE,135,1.3,4.9,80,0.00,,,0.07,,2013-02-24 04:11:00,
2013-02-24 05:16:00,45.1,39.6,29.76,SE,135,1.3,1.7,81,0.00,,,0.07,,2013-02-24 04:16:00,
2013-02-24 05:21:00,45.0,39.4,29.76,SE,135,1.7,3.1,81,0.00,,,0.07,,2013-02-24 04:21:00,
2013-02-24 05:26:00,45.0,39.4,29.76,South,180,1.3,3.5,81,0.00,,,0.07,,2013-02-24 04:26:00,
2013-02-24 05:31:00,45.1,39.9,29.76,South,180,1.7,2.2,82,0.00,,,0.07,,2013-02-24 04:31:00,
2013-02-24 05:36:00,45.0,39.7,29.73,SE,135,1.7,3.1,82,0.00,,,0.07,,2013-02-24 04:36:00,
2013-02-24 05:41:00,45.0,39.7,29.73,SE,135,2.6,2.6,82,0.00,,,0.07,,2013-02-24 04:41:00,
2013-02-24 05:46:00,45.1,39.6,29.76,SE,135,3.1,3.1,81,0.00,,,0.07,,2013-02-24 04:46:00,
2013-02-24 05:51:00,45.1,39.6,29.76,SSE,157,2.2,3.5,81,0.00,,,0.07,,2013-02-24 04:51:00,
2013-02-24 06:01:00,45.3,39.4,29.76,South,180,1.7,1.7,80,0.00,,,0.07,,2013-02-24 05:01:00,
2013-02-24 06:06:00,45.5,39.6,29.76,South,180,2.2,2.6,80,0.00,,,0.07,,2013-02-24 05:06:00,
2013-02-24 06:11:00,45.5,39.2,29.76,South,180,3.5,3.5,79,0.00,,,0.07,,2013-02-24 05:11:00,
2013-02-24 06:16:00,45.7,39.2,29.73,South,180,4.0,4.0,78,0.00,,,0.07,,2013-02-24 05:16:00,
2013-02-24 06:21:00,45.7,38.8,29.73,South,180,3.1,5.3,77,0.00,,,0.07,,2013-02-24 05:21:00,
2013-02-24 06:26:00,45.9,38.7,29.76,South,180,1.7,4.0,76,0.00,,,0.07,,2013-02-24 05:26:00,
2013-02-24 06:31:00,45.9,38.3,29.76,SSW,202,2.6,3.5,75,0.00,,,0.07,,2013-02-24 05:31:00,
2013-02-24 06:36:00,45.9,38.3,29.76,SW,225,2.6,5.8,75,0.00,,,0.07,,2013-02-24 05:36:00,
2013-02-24 06:41:00,45.9,38.7,29.76,SSW,202,2.2,2.2,76,0.00,,,0.07,,2013-02-24 05:41:00,
2013-02-24 06:46:00,45.9,38.7,29.76,SW,225,2.6,3.5,76,0.00,,,0.07,,2013-02-24 05:46:00,
2013-02-24 06:51:00,45.9,38.7,29.76,SW,225,3.5,4.4,76,0.00,,,0.07,,2013-02-24 05:51:00,
2013-02-24 06:56:00,45.9,38.3,29.76,SW,225,5.3,0.0,75,0.00,,,0.07,,2013-02-24 05:56:00,
2013-02-24 07:01:00,45.9,38.3,29.76,SW,225,4.9,5.8,75,0.00,,,0.07,,2013-02-24 06:01:00,
2013-02-24 07:06:00,45.9,37.9,29.76,SW,225,5.3,5.8,74,0.00,,,0.07,,2013-02-24 06:06:00,
2013-02-24 07:11:00,45.7,37.4,29.76,SW,225,4.4,8.0,73,0.00,,,0.07,,2013-02-24 06:11:00,
2013-02-24 07:16:00,45.9,37.2,29.79,SW,225,7.6,8.0,72,0.00,,,0.07,,2013-02-24 06:16:00,
2013-02-24 07:21:00,45.9,37.2,29.79,South,180,6.7,9.8,72,0.00,,,0.07,,2013-02-24 06:21:00,
2013-02-24 07:26:00,45.9,37.2,29.76,SW,225,4.9,5.8,72,-99.99,,,0.07,,2013-02-24 06:26:00,
2013-02-24 07:31:00,45.9,37.6,29.76,SW,225,3.1,5.3,73,-99.99,,,0.07,,2013-02-24 06:31:00,
2013-02-24 07:36:00,46.0,37.8,29.76,SW,225,1.3,5.3,73,-99.99,,,0.07,,2013-02-24 06:36:00,
2013-02-24 07:41:00,46.0,37.8,29.76,SW,225,1.7,2.2,73,-99.99,,,0.07,,2013-02-24 06:41:00,
2013-02-24 07:46:00,46.0,37.8,29.79,SW,225,1.3,2.2,73,-99.99,,,0.07,,2013-02-24 06:46:00,
2013-02-24 07:51:00,46.2,37.9,29.79,SW,225,0.8,1.3,73,-99.99,,,0.07,,2013-02-24 06:51:00,
2013-02-24 07:56:00,46.2,37.9,29.79,SW,225,2.2,5.8,73,-99.99,,,0.07,,2013-02-24 06:56:00,
2013-02-24 08:01:00,46.2,37.6,29.79,SW,225,2.6,4.0,72,-99.99,,,0.07,,2013-02-24 07:01:00,
2013-02-24 08:06:00,46.4,37.8,29.79,SW,225,1.3,4.0,72,-99.99,,,0.07,,2013-02-24 07:06:00,
2013-02-24 08:11:00,46.4,37.4,29.79,SW,225,2.6,5.3,71,-99.99,,,0.07,,2013-02-24 07:11:00,
2013-02-24 08:16:00,46.4,37.0,29.79,SW,225,7.1,9.3,70,-99.99,,,0.07,,2013-02-24 07:16:00,
2013-02-24 08:21:00,46.2,36.9,29.79,SW,225,5.8,10.7,70,-99.99,,,0.07,,2013-02-24 07:21:00,
2013-02-24 08:26:00,46.2,36.9,29.79,SE,135,6.2,6.2,70,-99.99,,,0.07,,2013-02-24 07:26:00,
2013-02-24 08:31:00,46.2,36.9,29.79,SW,225,2.6,3.1,70,-99.99,,,0.07,,2013-02-24 07:31:00,
2013-02-24 08:36:00,46.4,37.0,29.79,SW,225,2.2,5.8,70,-99.99,,,0.07,,2013-02-24 07:36:00,
2013-02-24 08:41:00,46.6,37.2,29.79,SW,225,1.7,3.1,70,-99.99,,,0.07,,2013-02-24 07:41:00,
2013-02-24 08:46:00,46.6,37.6,29.79,South,180,2.2,3.5,71,-99.99,,,0.07,,2013-02-24 07:46:00,
2013-02-24 08:51:00,46.8,37.8,29.79,SE,135,1.3,3.1,71,-99.99,,,0.07,,2013-02-24 07:51:00,
2013-02-24 08:56:00,46.9,37.9,29.82,SE,135,4.0,4.0,71,-99.99,,,0.07,,2013-02-24 07:56:00,
2013-02-24 09:01:00,46.8,37.8,29.82,SE,135,12.9,12.9,71,0.00,,,0.07,,2013-02-24 08:01:00,
2013-02-24 09:06:00,46.4,37.8,29.82,SW,225,6.7,8.0,72,0.00,,,0.07,,2013-02-24 08:06:00,
2013-02-24 09:11:00,46.0,37.4,29.82,SW,225,7.6,12.0,72,0.00,,,0.07,,2013-02-24 08:11:00,
2013-02-24 09:16:00,45.9,37.6,29.82,SW,225,5.3,0.0,73,0.00,,,0.07,,2013-02-24 08:16:00,
2013-02-24 09:21:00,45.7,37.4,29.82,SW,225,5.8,5.8,73,0.00,,,0.07,,2013-02-24 08:21:00,
2013-02-24 09:26:00,45.5,37.2,29.82,SW,225,5.8,7.6,73,0.00,,,0.07,,2013-02-24 08:26:00,
2013-02-24 09:31:00,45.7,37.0,29.82,SW,225,7.1,10.2,72,0.00,,,0.07,,2013-02-24 08:31:00,
2013-02-24 09:36:00,46.0,37.0,29.79,SW,225,5.8,8.9,71,0.00,,,0.07,,2013-02-24 08:36:00,
2013-02-24 09:41:00,46.4,36.3,29.79,SW,225,5.8,8.9,68,0.00,,,0.07,,2013-02-24 08:41:00,
2013-02-24 09:46:00,46.8,36.0,29.82,SW,225,7.1,9.8,66,0.00,,,0.07,,2013-02-24 08:46:00,
2013-02-24 09:51:00,46.9,36.5,29.82,South,180,6.2,8.5,67,0.00,,,0.07,,2013-02-24 08:51:00,
2013-02-24 09:56:00,47.1,36.3,29.82,SW,225,6.7,6.7,66,0.00,,,0.07,,2013-02-24 08:56:00,
2013-02-24 10:01:00,47.3,36.9,29.82,SW,225,1.7,5.8,67,0.00,,,0.07,,2013-02-24 09:01:00,
2013-02-24 10:06:00,47.5,37.0,29.82,SW,225,3.1,6.2,67,0.00,,,0.07,,2013-02-24 09:06:00,
2013-02-24 10:11:00,47.7,37.6,29.82,SW,225,6.7,6.7,68,0.00,,,0.07,,2013-02-24 09:11:00,
2013-02-24 10:16:00,47.7,37.6,29.82,SSW,202,9.3,10.2,68,0.00,,,0.07,,2013-02-24 09:16:00,
2013-02-24 10:21:00,47.8,37.8,29.82,SW,225,12.0,12.0,68,0.00,,,0.07,,2013-02-24 09:21:00,
2013-02-24 10:31:00,48.2,38.1,29.82,SSW,202,8.5,8.5,68,0.00,,,0.07,,2013-02-24 09:31:00,
2013-02-24 10:36:00,48.6,37.9,29.82,South,180,4.9,12.0,67,0.00,,,0.07,,2013-02-24 09:36:00,
2013-02-24 10:41:00,48.9,36.9,29.82,SW,225,11.6,15.2,63,0.00,,,0.07,,2013-02-24 09:41:00,
2013-02-24 10:46:00,48.7,36.1,29.82,SW,225,12.5,15.2,62,0.00,,,0.07,,2013-02-24 09:46:00,
2013-02-24 10:51:00,49.1,37.4,29.82,SW,225,7.6,12.0,64,0.00,,,0.07,,2013-02-24 09:51:00,
2013-02-24 10:56:00,49.1,35.8,29.82,SW,225,13.4,13.4,60,0.00,,,0.07,,2013-02-24 09:56:00,
2013-02-24 11:01:00,49.3,35.1,29.82,SW,225,9.8,19.2,58,0.00,,,0.07,,2013-02-24 10:01:00,
2013-02-24 11:06:00,49.3,35.1,29.85,SW,225,9.8,11.6,58,0.00,,,0.07,,2013-02-24 10:06:00,
2013-02-24 11:11:00,49.5,35.6,29.85,SW,225,6.7,11.6,59,0.00,,,0.07,,2013-02-24 10:11:00,
2013-02-24 11:16:00,49.6,35.4,29.85,South,180,7.1,12.9,58,0.00,,,0.07,,2013-02-24 10:16:00,
2013-02-24 11:21:00,49.8,36.0,29.85,South,180,7.6,9.8,59,0.00,,,0.07,,2013-02-24 10:21:00,
2013-02-24 11:26:00,50.0,34.3,29.82,South,180,5.8,9.8,55,0.00,,,0.07,,2013-02-24 10:26:00,
2013-02-24 11:31:00,50.2,36.0,29.82,SW,225,9.3,12.9,58,0.00,,,0.07,,2013-02-24 10:31:00,
2013-02-24 11:36:00,49.6,34.9,29.85,SW,225,12.0,15.2,57,0.00,,,0.07,,2013-02-24 10:36:00,
2013-02-24 11:41:00,49.5,36.5,29.85,SW,225,14.3,14.3,61,0.00,,,0.07,,2013-02-24 10:41:00,
2013-02-24 11:46:00,49.5,36.5,29.82,SW,225,11.1,13.4,61,0.00,,,0.07,,2013-02-24 10:46:00,
2013-02-24 11:51:00,49.5,36.1,29.82,SW,225,7.1,13.4,60,0.00,,,0.07,,2013-02-24 10:51:00,
2013-02-24 11:56:00,49.6,35.8,29.85,SW,225,9.3,10.2,59,0.00,,,0.07,,2013-02-24 10:56:00,
2013-02-24 12:01:00,49.8,36.0,29.85,SW,225,8.5,11.1,59,0.00,,,0.07,,2013-02-24 11:01:00,
2013-02-24 12:06:00,50.4,36.5,29.85,SW,225,8.0,11.1,59,0.00,,,0.07,,2013-02-24 11:06:00,
2013-02-24 12:11:00,50.0,36.1,29.85,SW,225,8.9,0.0,59,0.00,,,0.07,,2013-02-24 11:11:00,
2013-02-24 12:16:00,50.0,35.8,29.85,SW,225,10.7,0.0,58,0.00,,,0.07,,2013-02-24 11:16:00,
2013-02-24 12:21:00,50.0,36.1,29.85,SW,225,7.6,0.0,59,0.00,,,0.07,,2013-02-24 11:21:00,
2013-02-24 12:30:00,49.8,35.6,29.82,SW,225,4.9,4.9,58,0.00,,,0.07,,2013-02-24 11:30:00,
2013-02-24 12:39:00,49.6,35.4,29.85,SSW,202,5.3,10.7,58,0.00,,,0.07,,2013-02-24 11:39:00,
2013-02-24 12:44:00,50.4,36.5,29.85,SW,225,4.0,10.7,59,0.00,,,0.07,,2013-02-24 11:44:00,
2013-02-24 12:49:00,50.0,37.0,29.85,SW,225,6.7,10.7,61,0.00,,,0.07,,2013-02-24 11:49:00,
2013-02-24 12:54:00,50.2,36.3,29.85,South,180,8.5,8.5,59,0.00,,,0.07,,2013-02-24 11:54:00,
2013-02-24 12:59:00,50.0,35.8,29.85,SSW,202,12.9,20.1,58,0.00,,,0.07,,2013-02-24 11:59:00,
2013-02-24 13:04:00,50.2,36.0,29.85,SW,225,11.1,14.3,58,0.00,,,0.07,,2013-02-24 12:04:00,
2013-02-24 13:09:00,50.4,35.2,29.82,SW,225,8.9,8.9,56,0.00,,,0.07,,2013-02-24 12:09:00,
2013-02-24 13:14:00,50.2,36.0,29.82,SW,225,8.9,8.9,58,0.00,,,0.07,,2013-02-24 12:14:00,
2013-02-24 13:19:00,50.0,35.2,29.82,SW,225,7.6,7.6,57,0.00,,,0.07,,2013-02-24 12:19:00,
2013-02-24 13:24:00,50.2,35.1,29.82,SW,225,5.8,5.8,56,0.00,,,0.07,,2013-02-24 12:24:00,
2013-02-24 13:29:00,50.2,35.1,29.82,SW,225,5.8,5.8,56,0.00,,,0.07,,2013-02-24 12:29:00,
2013-02-24 13:34:00,49.8,35.1,29.85,SW,225,5.8,6.2,57,0.00,,,0.07,,2013-02-24 12:34:00,
2013-02-24 13:39:00,49.8,34.7,29.85,SE,135,4.0,12.0,56,0.00,,,0.07,,2013-02-24 12:39:00,
2013-02-24 13:49:00,50.4,35.2,29.85,South,180,8.9,8.9,56,0.00,,,0.07,,2013-02-24 12:49:00,
2013-02-24 13:54:00,49.8,35.1,29.85,South,180,8.9,8.9,57,0.00,,,0.07,,2013-02-24 12:54:00,
2013-02-24 13:59:00,49.6,35.4,29.85,South,180,7.6,10.7,58,0.00,,,0.07,,2013-02-24 12:59:00,
2013-02-24 14:04:00,49.5,35.2,29.85,SW,225,5.8,13.4,58,0.00,,,0.07,,2013-02-24 13:04:00,
2013-02-24 14:09:00,49.5,34.3,29.85,SW,225,7.1,7.6,56,0.00,,,0.07,,2013-02-24 13:09:00,
2013-02-24 14:14:00,49.5,34.3,29.85,SW,225,5.3,5.8,56,0.00,,,0.07,,2013-02-24 13:14:00,
2013-02-24 14:19:00,49.5,34.7,29.85,SW,225,4.0,4.0,57,0.00,,,0.07,,2013-02-24 13:19:00,
2013-02-24 14:24:00,49.3,35.4,29.85,SSW,202,6.2,6.2,59,0.00,,,0.07,,2013-02-24 13:24:00,
2013-02-24 14:29:00,49.1,35.2,29.85,SE,135,6.7,8.5,59,0.00,,,0.07,,2013-02-24 13:29:00,
2013-02-24 14:34:00,48.9,36.0,29.85,SW,225,7.6,14.3,61,0.00,,,0.07,,2013-02-24 13:34:00,
2013-02-24 14:39:00,48.9,36.9,29.82,SW,225,12.9,12.9,63,0.00,,,0.07,,2013-02-24 13:39:00,
2013-02-24 14:49:00,49.8,36.3,29.85,SW,225,9.3,12.5,60,0.00,,,0.07,,2013-02-24 13:49:00,
2013-02-24 14:54:00,49.5,35.6,29.85,SW,225,13.4,17.0,59,0.00,,,0.07,,2013-02-24 13:54:00,
2013-02-24 14:59:00,49.8,36.3,29.85,SW,225,8.0,15.2,60,0.00,,,0.07,,2013-02-24 13:59:00,
2013-02-24 15:09:00,49.8,36.3,29.88,NW,315,10.7,15.6,60,0.00,,,0.07,,2013-02-24 14:09:00,
2013-02-24 15:14:00,49.8,36.3,29.88,SW,225,5.3,11.6,60,0.00,,,0.07,,2013-02-24 14:14:00,
2013-02-24 15:24:00,49.6,34.9,29.85,SW,225,7.1,7.6,57,0.00,,,0.07,,2013-02-24 14:24:00,
2013-02-24 16:11:00,50.5,35.8,29.88,South,180,7.1,9.3,57,0.00,,,0.07,,2013-02-24 15:11:00,
2013-02-24 16:44:00,47.3,36.9,29.88,South,180,10.7,10.7,67,0.00,,,0.07,,2013-02-24 15:44:00,
2013-02-24 16:49:00,46.0,36.3,29.88,South,180,11.6,11.6,69,0.00,,,0.07,,2013-02-24 15:49:00,
2013-02-24 16:54:00,45.1,35.8,29.88,SW,225,8.9,9.3,70,0.00,,,0.07,,2013-02-24 15:54:00,
2013-02-24 16:59:00,44.6,36.3,29.88,SW,225,7.1,7.1,73,0.00,,,0.07,,2013-02-24 15:59:00,
2013-02-24 17:04:00,44.1,36.5,29.91,SW,225,6.7,8.0,75,0.00,,,0.07,,2013-02-24 16:04:00,
2013-02-24 17:09:00,43.9,36.7,29.91,SW,225,5.3,6.2,76,0.00,,,0.07,,2013-02-24 16:09:00,
2013-02-24 17:14:00,43.7,36.9,29.91,WSW,247,3.5,3.5,77,0.00,,,0.07,,2013-02-24 16:14:00,
2013-02-24 17:19:00,43.5,36.7,29.91,SW,225,3.1,3.1,77,0.00,,,0.07,,2013-02-24 16:19:00,
2013-02-24 17:24:00,43.5,36.7,29.91,SW,225,3.1,3.1,77,0.00,,,0.07,,2013-02-24 16:24:00,
2013-02-24 17:29:00,43.2,36.7,29.91,SW,225,1.3,2.6,78,0.00,,,0.07,,2013-02-24 16:29:00,
2013-02-24 17:34:00,43.2,36.7,29.91,SW,225,2.2,2.6,78,0.00,,,0.07,,2013-02-24 16:34:00,
2013-02-24 17:39:00,43.2,37.0,29.91,SW,225,1.7,2.2,79,0.00,,,0.07,,2013-02-24 16:39:00,
2013-02-24 17:44:00,43.0,36.9,29.91,SW,225,3.1,3.1,79,0.00,,,0.07,,2013-02-24 16:44:00,
2013-02-24 17:49:00,43.0,37.4,29.91,SW,225,8.5,11.1,81,0.00,,,0.07,,2013-02-24 16:49:00,
2013-02-24 17:54:00,43.0,37.4,29.91,SW,225,7.6,8.9,81,0.00,,,0.07,,2013-02-24 16:54:00,
2013-02-24 17:59:00,43.0,37.4,29.94,SW,225,7.1,8.9,81,0.00,,,0.07,,2013-02-24 16:59:00,
2013-02-24 18:04:00,43.0,37.4,29.94,SW,225,6.2,8.5,81,0.00,,,0.07,,2013-02-24 17:04:00,
2013-02-24 18:09:00,43.2,37.4,29.94,South,180,5.3,5.3,80,0.00,,,0.07,,2013-02-24 17:09:00,
2013-02-24 18:14:00,43.3,37.6,29.94,South,180,4.0,6.2,80,0.00,,,0.07,,2013-02-24 17:14:00,
2013-02-24 18:19:00,43.2,37.0,29.94,SW,225,5.3,9.8,79,0.00,,,0.07,,2013-02-24 17:19:00,
2013-02-24 18:24:00,43.3,36.1,29.94,SW,225,2.6,5.3,76,0.00,,,0.07,,2013-02-24 17:24:00,
2013-02-24 18:29:00,43.7,36.1,29.91,SW,225,1.7,3.5,75,0.00,,,0.07,,2013-02-24 17:29:00,
2013-02-24 18:34:00,43.9,36.0,29.91,South,180,2.2,3.1,74,0.00,,,0.07,,2013-02-24 17:34:00,
2013-02-24 18:39:00,44.1,35.6,29.94,South,180,4.9,4.9,72,0.00,,,0.07,,2013-02-24 17:39:00,
2013-02-24 18:44:00,43.9,35.4,29.94,South,180,2.2,3.5,72,0.00,,,0.07,,2013-02-24 17:44:00,
2013-02-24 18:49:00,43.7,35.2,29.94,South,180,2.2,4.0,72,0.00,,,0.07,,2013-02-24 17:49:00,
2013-02-24 18:54:00,43.7,35.2,29.94,South,180,2.2,4.0,72,0.00,,,0.07,,2013-02-24 17:54:00,
2013-02-24 18:59:00,43.5,35.4,29.97,South,180,1.7,4.0,73,0.00,,,0.07,,2013-02-24 17:59:00,
2013-02-24 19:04:00,43.5,35.4,29.97,SE,135,1.7,4.0,73,0.00,,,0.07,,2013-02-24 18:04:00,
2013-02-24 19:09:00,43.7,35.8,29.94,SW,225,2.6,2.6,74,0.00,,,0.07,,2013-02-24 18:09:00,
2013-02-24 19:14:00,43.9,36.3,29.94,South,180,0.8,0.8,75,0.00,,,0.07,,2013-02-24 18:14:00,
2013-02-24 19:19:00,43.7,36.1,29.97,South,180,0.4,1.3,75,0.00,,,0.07,,2013-02-24 18:19:00,
2013-02-24 19:24:00,43.9,36.7,29.97,South,180,0.8,1.3,76,0.00,,,0.07,,2013-02-24 18:24:00,
2013-02-24 19:29:00,43.9,36.7,29.97,South,180,0.0,0.0,76,0.00,,,0.07,,2013-02-24 18:29:00,
2013-02-24 19:34:00,43.9,36.7,29.97,East,90,1.3,1.7,76,0.00,,,0.07,,2013-02-24 18:34:00,
2013-02-24 19:39:00,43.7,36.9,29.94,East,90,3.5,4.4,77,0.00,,,0.07,,2013-02-24 18:39:00,
2013-02-24 19:44:00,43.7,37.2,29.94,East,90,3.5,4.0,78,0.00,,,0.07,,2013-02-24 18:44:00,
2013-02-24 19:49:00,43.7,37.6,29.94,East,90,2.6,3.5,79,0.00,,,0.07,,2013-02-24 18:49:00,
2013-02-24 19:54:00,43.7,37.6,29.94,East,90,3.1,3.5,79,0.00,,,0.07,,2013-02-24 18:54:00,
2013-02-24 19:59:00,43.7,37.8,29.97,East,90,3.5,3.5,80,0.00,,,0.07,,2013-02-24 18:59:00,
2013-02-24 20:04:00,43.7,37.8,29.97,ESE,112,2.2,2.2,80,0.00,,,0.07,,2013-02-24 19:04:00,
2013-02-24 20:09:00,43.7,37.8,29.97,East,90,2.6,4.0,80,0.00,,,0.07,,2013-02-24 19:09:00,
2013-02-24 20:14:00,43.9,37.9,29.97,East,90,1.3,4.0,80,0.00,,,0.07,,2013-02-24 19:14:00,
2013-02-24 20:19:00,43.9,37.8,29.97,South,180,1.3,1.3,79,0.00,,,0.07,,2013-02-24 19:19:00,
2013-02-24 20:24:00,43.9,37.8,29.97,SW,225,1.7,1.7,79,0.00,,,0.07,,2013-02-24 19:24:00,
2013-02-24 20:29:00,43.9,37.8,29.97,South,180,2.6,3.1,79,0.00,,,0.07,,2013-02-24 19:29:00,
2013-02-24 20:34:00,43.9,37.8,29.97,South,180,2.2,3.1,79,0.00,,,0.07,,2013-02-24 19:34:00,
2013-02-24 20:39:00,43.9,37.8,29.97,SE,135,3.5,3.5,79,0.00,,,0.07,,2013-02-24 19:39:00,
2013-02-24 20:44:00,44.1,37.9,29.97,SE,135,2.2,3.1,79,0.00,,,0.07,,2013-02-24 19:44:00,
2013-02-24 20:49:00,44.1,37.9,29.97,SE,135,2.6,3.1,79,0.00,,,0.07,,2013-02-24 19:49:00,
2013-02-24 20:54:00,43.9,37.8,29.97,East,90,2.6,3.1,79,0.00,,,0.07,,2013-02-24 19:54:00,
2013-02-24 20:59:00,43.9,37.8,29.97,East,90,1.3,3.1,79,0.00,,,0.07,,2013-02-24 19:59:00,
2013-02-24 21:04:00,43.9,37.8,29.97,East,90,0.4,1.7,79,0.00,,,0.07,,2013-02-24 20:04:00,
2013-02-24 21:09:00,43.9,37.8,29.94,East,90,2.2,2.6,79,0.00,,,0.07,,2013-02-24 20:09:00,
2013-02-24 21:14:00,43.9,37.8,29.94,East,90,0.8,0.8,79,0.00,,,0.07,,2013-02-24 20:14:00,
2013-02-24 21:19:00,43.9,37.8,30.00,SE,135,3.5,3.5,79,0.00,,,0.07,,2013-02-24 20:19:00,
2013-02-24 21:24:00,43.9,37.4,30.00,East,90,2.6,4.4,78,0.00,,,0.07,,2013-02-24 20:24:00,
2013-02-24 21:29:00,43.7,36.9,30.00,SE,135,2.6,3.1,77,0.00,,,0.07,,2013-02-24 20:29:00,
2013-02-24 21:34:00,43.7,36.9,30.00,SE,135,1.7,3.1,77,0.00,,,0.07,,2013-02-24 20:34:00,
2013-02-24 21:39:00,43.7,36.5,29.97,East,90,1.7,3.5,76,0.00,,,0.07,,2013-02-24 20:39:00,
2013-02-24 21:44:00,43.5,36.3,29.97,SE,135,2.2,2.2,76,0.00,,,0.07,,2013-02-24 20:44:00,
2013-02-24 21:49:00,43.5,36.3,30.00,ESE,112,3.5,3.5,76,0.00,,,0.07,,2013-02-24 20:49:00,
2013-02-24 21:54:00,43.3,36.1,30.00,East,90,2.2,4.0,76,0.00,,,0.07,,2013-02-24 20:54:00,
2013-02-24 21:59:00,43.3,36.1,30.00,East,90,3.1,4.0,76,0.00,,,0.07,,2013-02-24 20:59:00,
2013-02-24 22:04:00,43.2,36.0,30.00,SE,135,4.0,4.0,76,0.00,,,0.07,,2013-02-24 21:04:00,
2013-02-24 22:09:00,43.0,35.8,29.97,NE,45,3.1,4.9,76,0.00,,,0.07,,2013-02-24 21:09:00,
2013-02-24 22:14:00,43.0,35.8,29.97,NE,45,3.1,4.9,76,0.00,,,0.07,,2013-02-24 21:14:00,
2013-02-24 22:19:00,42.8,36.0,30.00,East,90,3.1,3.1,77,0.00,,,0.07,,2013-02-24 21:19:00,
2013-02-24 22:24:00,42.6,35.8,30.00,East,90,2.6,3.1,77,0.00,,,0.07,,2013-02-24 21:24:00,
2013-02-24 22:29:00,42.6,35.8,30.00,East,90,3.5,3.5,77,0.00,,,0.07,,2013-02-24 21:29:00,
2013-02-24 22:34:00,42.6,36.1,30.00,NE,45,2.2,2.6,78,0.00,,,0.07,,2013-02-24 21:34:00,
2013-02-24 22:39:00,42.6,36.1,30.00,NE,45,1.7,0.0,78,0.00,,,0.07,,2013-02-24 21:39:00,
2013-02-24 22:44:00,42.4,36.0,30.00,East,90,2.6,4.0,78,0.00,,,0.07,,2013-02-24 21:44:00,
2013-02-24 22:49:00,42.4,36.0,30.00,SE,135,1.7,2.2,78,0.00,,,0.07,,2013-02-24 21:49:00,
2013-02-24 22:54:00,42.4,36.3,30.00,NE,45,2.2,2.6,79,0.00,,,0.07,,2013-02-24 21:54:00,
2013-02-24 22:59:00,42.4,36.0,30.00,East,90,2.2,3.1,78,0.00,,,0.07,,2013-02-24 21:59:00,
2013-02-24 23:04:00,42.4,36.0,30.00,East,90,2.2,2.2,78,0.00,,,0.07,,2013-02-24 22:04:00,
2013-02-24 23:09:00,42.4,36.0,30.03,SE,135,1.7,1.7,78,0.00,,,0.07,,2013-02-24 22:09:00,
2013-02-24 23:14:00,42.4,36.0,30.03,East,90,0.0,0.0,78,0.00,,,0.07,,2013-02-24 22:14:00,
2013-02-24 23:19:00,42.4,36.0,30.03,East,90,1.3,2.2,78,0.00,,,0.07,,2013-02-24 22:19:00,
2013-02-24 23:24:00,42.4,36.0,30.03,SE,135,2.2,2.6,78,0.00,,,0.07,,2013-02-24 22:24:00,
2013-02-24 23:29:00,42.4,36.0,30.03,SE,135,1.3,1.7,78,0.00,,,0.07,,2013-02-24 22:29:00,
2013-02-24 23:34:00,42.6,36.1,30.03,SE,135,1.3,1.7,78,0.00,,,0.07,,2013-02-24 22:34:00,
2013-02-24 23:39:00,42.6,36.1,30.00,SE,135,1.7,1.7,78,0.00,,,0.07,,2013-02-24 22:39:00,
2013-02-24 23:44:00,42.4,36.0,30.00,SE,135,3.5,3.5,78,0.00,,,0.07,,2013-02-24 22:44:00,
2013-02-24 23:49:00,42.4,36.0,30.03,East,90,2.6,3.1,78,0.00,,,0.07,,2013-02-24 22:49:00,
2013-02-24 23:54:00,42.3,35.8,30.03,East,90,2.6,2.6,78,0.00,,,0.07,,2013-02-24 22:54:00,
2013-02-24 23:59:00,42.3,35.8,30.03,East,90,3.5,4.0,78,0.00,,,0.07,,2013-02-24 22:59:00,